Andover, NJ

5:35 AM EST on January 19, 2018 (GMT -0500)
Andover

Weather History for K12N - July, 2013

Change the Weather History Date:

Saturday, July 27, 2013

  Actual Average (KFWN) Record (KFWN)
Temperature  
Mean Temperature 70 °F -  
Max Temperature 82 °F 80 °F 97 °F (1955)
Min Temperature 57 °F 59 °F 44 °F (1977)
Cooling Degree Days 4    
Growing Degree Days 20 (Base 50)    
Moisture  
Dew Point 60 °F    
Average Humidity 71    
Maximum Humidity 97    
Minimum Humidity 50    
Precipitation  
Precipitation 0.00 in - - ()
Sea Level Pressure  
Sea Level Pressure 30.01 in    
Wind  
Wind Speed 2 mph (SSW)    
Max Wind Speed 7 mph    
Max Gust Speed -    
Averages and records for this station are not official NWS values.
T = Trace of Precipitation, MM = Missing Value Source: NWS Daily Summary

Daily Weather History Graph

Daily Weather History Graph

Search for Another Location

Airport or City:

Trip Planner

Search our weather history database for the weather conditions in past years. The results will help you decide how hot, cold, wet, or windy it might be!

Date:

Astronomy

Jul. 27, 2013 Rise Set
Actual Time 5:50 AM EDT 8:20 PM EDT
Civil Twilight 5:18 AM EDT 8:51 PM EDT
Nautical Twilight 4:39 AM EDT 9:30 PM EDT
Astronomical Twilight 3:56 AM EDT 10:13 PM EDT
Moon 11:02 PM EDT (7/27) 11:31 AM EDT (7/27)
Length of Visible Light 15h 32m
Length of Day
14h 29m
Waning Gibbous, 71% of the Moon is Illuminated
Jul 27
Waning Gibbous
Jul 29
Last Quarter
Aug 6
New
Aug 14
First Quarter
Aug 20
Full

Hourly Weather History & Observations

Time (EDT) Temp. Heat Index Dew Point Humidity Pressure Visibility Wind Dir Wind Speed Gust Speed Precip Events Conditions
12:54 AM 61.0 °F - 59.0 °F 93% 30.05 in - Calm Calm - N/A   Unknown
1:54 AM 60.1 °F - 57.9 °F 93% 30.04 in - Calm Calm - N/A   Unknown
2:54 AM 59.0 °F - 57.9 °F 96% 30.04 in - SSW 3.5 mph - N/A   Unknown
3:54 AM 57.9 °F - 55.9 °F 93% 30.03 in - Calm Calm - N/A   Unknown
4:54 AM 57.9 °F - 55.9 °F 93% 30.04 in - Calm Calm - N/A   Unknown
5:54 AM 57.0 °F - 55.9 °F 96% 30.05 in - Calm Calm - N/A   Unknown
6:54 AM 57.9 °F - 57.0 °F 97% 30.05 in - Calm Calm - N/A   Unknown
7:54 AM 64.9 °F - 61.0 °F 87% 30.05 in - Calm Calm - N/A   Unknown
8:54 AM 71.1 °F - 63.0 °F 75% 30.04 in - Calm Calm - N/A   Unknown
9:54 AM 75.0 °F - 63.0 °F 66% 30.05 in - SW 3.5 mph - N/A   Unknown
10:54 AM 75.9 °F - 62.1 °F 62% 30.05 in - SSW 4.6 mph - N/A   Unknown
11:54 AM 78.1 °F - 60.1 °F 54% 30.05 in - SW 6.9 mph - N/A   Unknown
12:54 PM 79.0 °F - 61.0 °F 54% 30.04 in - Variable 4.6 mph - N/A   Unknown
1:54 PM 80.1 °F 81.2 °F 62.1 °F 54% 30.02 in - Variable 6.9 mph - N/A   Unknown
2:54 PM 82.0 °F 83.0 °F 62.1 °F 51% 30.00 in - Variable 4.6 mph - N/A   Unknown
3:54 PM 82.0 °F 83.0 °F 62.1 °F 51% 29.98 in - SSW 4.6 mph - N/A   Unknown
4:54 PM 80.1 °F 81.2 °F 62.1 °F 54% 29.96 in - Calm Calm - N/A   Unknown
5:54 PM 81.0 °F 81.9 °F 62.1 °F 52% 29.95 in - Variable 4.6 mph - N/A   Unknown
6:54 PM 80.1 °F 80.9 °F 60.1 °F 50% 29.95 in - Calm Calm - N/A   Unknown
7:54 PM 75.9 °F - 62.1 °F 62% 29.97 in - Calm Calm - N/A   Unknown
8:54 PM 73.9 °F - 61.0 °F 64% 29.98 in - Variable 4.6 mph - N/A   Unknown
9:54 PM 72.0 °F - 59.0 °F 64% 29.99 in - Variable 4.6 mph - N/A   Unknown
10:54 PM 70.0 °F - 59.0 °F 68% 29.98 in - SE 3.5 mph - N/A   Unknown
11:54 PM 68.0 °F - 60.1 °F 76% 29.95 in - Calm Calm - N/A   Unknown